Weather History for KAPC - April, 2013

Change the Weather History Date:

Monday, April 8, 2013

  Actual Average Record
Temperature  
Mean Temperature 57 °F 54 °F  
Max Temperature 70 °F 67 °F 81 °F (2014)
Min Temperature 43 °F 41 °F 29 °F (2001)
Degree Days  
Heating Degree Days 8    
Month to date heating degree days 57  
Since 1 July heating degree days 2622  
Cooling Degree Days 0    
Month to date cooling degree days 0  
Year to date cooling degree days 0  
Growing Degree Days 8 (Base 50)    
Moisture  
Dew Point 37 °F    
Average Humidity 49    
Maximum Humidity 83    
Minimum Humidity 15    
Precipitation  
Precipitation 0.00 in - 1.20 in (1926)
Month to date precipitation 0.71  
Year to date precipitation 1.70  
Since 1 July precipitation 9.49  
Sea Level Pressure  
Sea Level Pressure 29.90 in    
Wind  
Wind Speed 13 mph (NW)    
Max Wind Speed 29 mph    
Max Gust Speed 37 mph    
Visibility 10 miles    
Events      
T = Trace of Precipitation, MM = Missing Value Source: NWS Daily Summary

Daily Weather History Graph

Daily Weather History Graph

Search for Another Location

Airport or City:

Trip Planner

Search our weather history database for the weather conditions in past years. The results will help you decide how hot, cold, wet, or windy it might be!

Date:

Astronomy

Apr. 08, 2013 Rise Set
Actual Time 6:43 AM PDT 7:39 PM PDT
Civil Twilight 6:16 AM PDT 8:06 PM PDT
Nautical Twilight 5:44 AM PDT 8:38 PM PDT
Astronomical Twilight 5:11 AM PDT 9:11 PM PDT
Moon 5:34 AM PDT (4/8) 6:19 PM PDT (4/8)
Length of Visible Light 13h 49m
Length of Day
12h 56m
Waning Crescent, 3% of the Moon is Illuminated
Apr 8
Waning Crescent
Apr 10
New
Apr 18
First Quarter
Apr 25
Full
May 2
Last Quarter

Hourly Weather History & Observations

Time (PDT) Temp. Windchill Dew Point Humidity Pressure Visibility Wind Dir Wind Speed Gust Speed Precip Events Conditions
12:54 AM 48.9 °F - 43.0 °F 80% 29.78 in 10.0 mi West 24.2 mph 29.9 mph N/A   Clear
1:54 AM 48.9 °F - 43.0 °F 80% 29.78 in 10.0 mi WNW 15.0 mph - N/A   Overcast
2:54 AM 48.9 °F - 41.0 °F 74% 29.77 in 10.0 mi WNW 18.4 mph 27.6 mph N/A   Clear
3:54 AM 48.0 °F - 39.9 °F 74% 29.80 in 10.0 mi WNW 18.4 mph 26.5 mph N/A   Clear
4:54 AM 46.9 °F - 37.9 °F 71% 29.81 in 10.0 mi WNW 21.9 mph 28.8 mph N/A   Clear
5:54 AM 46.0 °F 39.0 °F 37.0 °F 71% 29.82 in 10.0 mi WNW 17.3 mph - N/A   Clear
6:54 AM 45.0 °F 38.2 °F 36.0 °F 71% 29.86 in 10.0 mi WNW 15.0 mph - N/A   Clear
7:54 AM 48.0 °F - 36.0 °F 63% 29.91 in 10.0 mi WNW 10.4 mph - N/A   Clear
8:54 AM 51.1 °F - 37.9 °F 61% 29.92 in 10.0 mi WNW 10.4 mph - N/A   Clear
9:54 AM 55.0 °F - 39.0 °F 55% 29.93 in 10.0 mi West 13.8 mph - N/A   Clear
10:54 AM 61.0 °F - 32.0 °F 34% 29.92 in 10.0 mi NW 16.1 mph 24.2 mph N/A   Clear
11:54 AM 63.0 °F - 30.0 °F 29% 29.93 in 10.0 mi North 21.9 mph 32.2 mph N/A   Clear
12:54 PM 64.9 °F - 28.0 °F 25% 29.93 in 10.0 mi North 20.7 mph 36.8 mph N/A   Clear
1:54 PM 66.9 °F - 30.0 °F 25% 29.92 in 10.0 mi North 16.1 mph 24.2 mph N/A   Clear
2:54 PM 70.0 °F - 30.9 °F 24% 29.91 in 10.0 mi North 16.1 mph 24.2 mph N/A   Clear
3:54 PM 70.0 °F - 21.0 °F 16% 29.89 in 10.0 mi North 18.4 mph 31.1 mph N/A   Clear
4:54 PM 70.0 °F - 19.9 °F 15% 29.89 in 10.0 mi North 20.7 mph 26.5 mph N/A   Clear
5:44 PM 62.6 °F - 44.6 °F 52% 29.92 in 10.0 mi West 15.0 mph - N/A   Clear
5:54 PM 63.0 °F - 45.0 °F 52% 29.90 in 10.0 mi West 16.1 mph - N/A   Clear
6:54 PM 60.1 °F - 46.0 °F 60% 29.91 in 10.0 mi WNW 15.0 mph - N/A   Partly Cloudy
7:54 PM 55.9 °F - 44.1 °F 64% 29.94 in 10.0 mi WNW 10.4 mph 17.3 mph N/A   Clear
8:54 PM 48.9 °F - 42.1 °F 77% 29.96 in 10.0 mi Calm Calm - N/A   Clear
9:54 PM 48.0 °F - 41.0 °F 77% 29.99 in 10.0 mi SE 3.5 mph - N/A   Clear
10:54 PM 45.0 °F - 39.9 °F 82% 30.00 in 10.0 mi Calm Calm - N/A   Clear
11:54 PM 44.1 °F - 39.0 °F 82% 30.01 in 10.0 mi Calm Calm - N/A   Clear